Wind_Speed
33 32 30 29 24 22 27 26 23 22 21 20 19 21 22 23 25 27 22 20 18 14 13 14 16 18 19 20 22 17 22 31 27 25 24 21 26 26 27 30 29 29 28 29 27
34 35 33 32 31 27 24 23 27 24 20 18 20 18 19 23 23 24 22 19 17 11 12 13 15 17 18 20 19 22 23 29 23 20 23 20 22 24 26 29 29 24 28 24 35
34 36 35 32 33 31 29 25 24 25 21 20 23 21 19 22 22 21 13 11 10 8 10 13 17 18 20 18 20 20 30 23 21 21 24 21 20 19 24 28 25 24 30 29 28
30 31 33 34 31 33 29 27 29 28 23 22 19 17 18 19 10 16 17 15 16 11 13 15 17 17 16 16 17 26 24 23 25 25 23 25 24 24 23 25 23 20 27 31 34
29 29 28 30 29 31 31 26 24 30 23 19 19 15 18 17 19 18 15 15 14 13 14 14 16 16 16 12 16 21 22 25 24 25 27 27 30 28 30 24 21 26 22 34 32
27 27 26 24 26 25 29 29 26 27 25 24 24 16 18 19 16 15 14 12 14 12 12 13 17 20 24 20 20 17 17 20 22 25 26 27 30 26 36 25 26 30 29 31 33
24 25 24 22 21 21 22 26 26 23 23 24 23 21 19 19 16 15 12 12 12 10 13 16 17 20 13 14 15 18 24 26 28 28 30 22 32 37 36 31 27 24 28 25 30
23 20 20 19 19 16 17 24 25 21 24 18 18 16 19 16 15 12 11 11 10 10 13 16 18 19 17 16 17 20 22 26 24 22 26 26 35 26 24 29 32 29 26 25 31
17 17 16 17 17 16 18 25 23 25 23 19 15 13 18 16 12 9 11 11 10 10 11 13 12 11 12 13 15 14 22 22 23 18 20 22 30 30 25 21 28 29 25 25 29
16 13 14 13 13 15 19 22 26 22 19 17 10 12 14 9 7 9 10 9 11 10 12 10 9 12 12 15 17 15 17 20 22 15 19 20 27 28 14 24 22 25 25 25 25
17 14 11 8 10 8 22 18 29 20 23 18 10 14 7 8 7 8 8 10 10 11 10 11 14 18 11 16 22 21 23 28 26 22 23 22 28 23 22 19 22 22 21 24 22
18 14 10 10 16 21 20 21 20 16 10 13 16 16 14 8 7 7 5 8 8 11 11 14 21 15 15 18 22 24 27 32 31 24 24 25 28 22 20 20 20 26 23 19 22
20 18 10 13 18 14 23 17 16 18 12 15 15 17 12 7 7 5 5 5 11 12 15 19 9 12 16 19 23 30 34 35 32 20 18 16 22 21 20 22 16 18 22 21 28
14 14 9 14 12 14 16 20 8 5 9 8 14 14 11 6 3 4 5 6 8 9 10 16 5 11 15 21 23 30 30 27 22 16 11 21 10 21 19 18 15 17 20 11 26
10 9 6 17 22 7 6 10 9 11 5 6 13 14 12 8 4 1 1 2 7 11 11 8 9 12 18 8 17 15 13 10 16 16 12 21 6 20 20 17 13 13 22 20 18
15 12 8 15 17 14 13 15 13 7 3 8 13 14 13 9 5 3 2 8 9 12 13 14 10 11 12 13 8 12 4 7 15 19 6 4 2 13 9 5 5 14 18 21 19
18 12 10 11 18 20 17 13 9 5 10 9 15 16 10 7 3 1 7 9 6 4 7 7 5 8 11 13 9 8 7 5 6 6 3 2 2 11 3 7 10 8 11 20 27
11 3 13 18 11 20 17 12 5 7 5 11 16 15 6 7 3 2 1 2 2 2 6 6 1 6 6 8 11 11 11 8 2 2 3 3 4 6 10 7 8 12 10 19 25
12 11 15 10 17 20 15 3 4 8 7 12 15 9 5 6 3 3 1 3 1 4 4 5 5 7 8 8 8 10 11 6 3 1 3 3 7 17 11 18 13 18 18 15 21
32 25 16 12 20 19 16 7 8 12 12 12 5 5 6 6 3 2 1 4 3 4 4 1 4 6 7 5 6 11 11 6 4 3 5 7 16 13 15 16 14 18 17 18 17
33 26 17 20 21 14 7 12 13 15 11 5 5 7 6 6 1 2 3 6 9 10 8 2 3 6 6 3 7 11 14 7 6 4 3 4 7 11 10 11 11 14 15 19 20
25 30 21 15 18 8 10 15 17 13 9 8 7 8 7 6 5 3 3 3 7 8 2 2 3 3 1 5 9 12 13 14 8 9 7 16 8 7 9 12 17 16 15 17 16
21 28 17 21 13 11 17 14 16 14 7 4 6 8 10 6 3 6 5 7 4 2 3 1 3 6 2 3 10 8 15 15 6 6 12 5 8 7 9 11 11 10 10 11 14
20 17 20 15 15 11 6 13 17 12 8 8 13 12 8 6 7 9 7 5 6 5 4 3 4 4 7 2 5 7 13 14 10 10 14 13 16 12 11 12 12 12 11 10 10
19 16 11 20 15 9 7 14 9 10 12 12 9 8 5 5 8 9 8 7 6 5 2 3 3 5 6 5 4 5 8 10 13 10 10 7 8 8 9 9 7 6 5 5 4
13 16 19 16 18 13 14 8 7 9 10 9 11 10 7 8 8 6 6 5 3 6 4 1 2 5 7 5 4 4 4 5 7 9 9 8 7 8 11 9 7 7 7 7 6
12 14 14 20 21 11 14 12 9 9 9 11 12 7 8 9 9 7 5 3 2 2 4 2 0 2 2 2 2 1 3 3 3 3 5 1 3 5 8 10 10 9 10 12 14
Wind_Direction
277 275 270 266 264 266 275 271 278 288 291 300 309 315 315 313 318 314 310 304 287 286 273 266 258 255 248 240 236 236 237 243 245 247 253 249 245 240 243 243 240 239 241 232 252
272 268 266 264 261 257 258 263 271 279 291 307 300 313 311 314 313 310 307 297 285 279 269 268 266 260 256 249 238 230 238 242 247 249 253 250 245 243 242 242 244 242 236 223 239
275 274 270 261 260 257 255 257 271 268 282 297 299 308 304 318 312 309 308 298 288 279 272 268 266 265 262 252 239 241 243 245 250 250 247 249 247 244 241 241 240 245 239 238 252
277 273 272 268 256 257 256 253 259 276 275 278 295 314 307 314 297 294 300 287 280 267 270 268 269 269 264 243 260 250 251 252 253 249 254 253 254 256 243 241 237 245 234 226 225
280 276 272 270 266 252 247 248 250 261 270 278 287 298 301 301 292 295 287 283 280 282 282 279 275 269 259 266 259 254 259 257 258 256 253 253 251 253 246 242 239 243 249 229 234
280 276 272 268 269 259 242 242 249 255 261 263 282 296 300 296 291 286 282 277 280 284 292 290 280 276 270 262 257 261 262 260 257 258 254 253 255 252 246 250 244 223 239 235 227
278 273 270 267 261 262 245 234 243 252 260 266 269 286 293 278 281 279 278 278 278 285 294 289 279 276 267 277 272 267 270 270 264 261 256 257 258 249 248 240 241 244 243 246 240
290 270 265 260 259 252 236 224 232 247 243 258 275 295 275 277 268 269 272 273 275 285 285 282 284 276 268 271 274 276 272 270 263 260 254 243 256 255 258 245 243 237 240 242 238
299 284 269 257 245 243 226 211 238 239 258 251 260 272 267 262 250 248 263 263 266 278 281 281 281 277 264 258 270 260 264 266 277 258 252 247 254 260 250 236 241 236 240 243 237
313 296 282 266 241 242 221 215 225 217 238 246 249 254 246 245 242 262 259 261 271 286 287 284 273 262 254 241 249 264 260 274 269 272 255 255 251 252 244 230 233 231 235 240 238
311 293 281 267 196 236 214 227 231 249 241 240 249 242 234 221 242 253 250 260 271 283 277 275 257 252 269 254 264 266 270 271 270 274 274 252 245 249 235 238 219 227 224 232 237
309 300 272 237 190 192 191 223 216 234 222 247 241 235 245 223 243 256 264 265 271 256 255 274 269 274 267 264 265 265 263 265 276 272 261 248 247 242 229 233 217 216 219 228 234
292 286 282 237 213 225 194 223 211 229 232 236 227 223 218 211 248 257 277 267 255 259 264 265 251 281 276 272 266 265 261 265 266 270 248 233 236 226 219 220 225 217 224 235 234
304 293 248 225 219 235 233 203 194 222 189 217 211 205 197 199 227 238 272 248 264 276 273 276 298 292 298 292 279 271 278 270 252 243 232 201 207 206 208 219 224 229 228 260 242
307 303 226 209 196 203 197 186 209 205 187 203 178 179 179 155 158 172 186 261 265 266 275 266 289 284 301 337 324 301 304 209 199 222 253 201 165 185 200 220 221 219 233 248 250
315 310 214 210 207 222 211 216 215 189 156 152 167 168 155 160 167 161 282 285 310 291 286 291 283 300 322 335 319 308 132 133 208 221 230 173 100 151 169 180 200 203 221 228 219
307 331 187 187 189 197 182 197 176 273 145 166 166 157 146 162 132 175 271 275 262 306 345 344 329 338 335 340 328 351 311 173 210 197 102 174 246 67 320 224 193 179 207 197 193
290 311 173 180 201 179 182 187 252 110 124 156 156 145 123 140 199 244 278 324 264 243 321 343 354 324 306 338 316 323 331 358 341 97 104 206 59 25 46 105 155 141 169 182 190
241 188 174 162 149 163 164 236 77 114 130 141 136 138 130 168 156 101 22 181 303 326 313 335 318 316 306 314 328 327 357 22 14 129 187 79 111 59 37 90 132 139 174 169 178
129 148 137 161 155 161 173 90 95 126 128 126 119 128 142 172 154 219 322 334 276 280 265 326 318 342 311 342 0 26 9 355 323 360 61 72 58 34 32 99 134 128 152 171 183
132 131 131 147 155 150 71 83 105 122 132 101 112 129 144 146 167 84 86 53 50 88 117 115 287 335 38 9 2 6 13 334 317 10 355 96 60 27 55 77 114 134 139 170 194
122 108 119 128 150 111 70 111 110 122 120 105 119 122 130 130 88 86 108 109 74 78 3 304 311 318 306 358 13 24 10 13 0 27 22 92 57 59 77 124 125 102 116 132 134
123 116 122 131 148 131 98 126 116 115 114 96 120 132 127 134 93 118 112 95 59 90 158 280 327 313 0 352 38 14 10 12 16 31 33 45 118 109 105 116 119 131 118 107 109
117 115 131 106 130 111 93 115 102 99 97 113 117 111 85 74 123 131 110 75 58 48 90 107 3 24 28 20 7 8 16 25 59 42 59 78 133 142 135 130 128 126 122 119 117
105 98 121 138 127 110 96 105 92 100 98 109 117 113 112 91 97 112 103 87 62 55 124 101 29 43 55 54 45 26 32 42 57 44 75 115 134 154 152 152 150 150 152 152 150
116 107 125 130 130 120 122 110 107 116 104 98 121 106 95 127 116 123 105 75 36 40 56 45 70 52 46 64 51 38 27 44 64 64 73 94 125 173 194 201 206 210 201 207 237
75 128 119 139 143 126 144 145 135 120 122 131 124 107 115 104 113 120 111 96 60 32 29 35 342 1 7 8 43 199 16 47 48 92 114 102 253 211 213 223 230 238 248 253 259
Height
3078 3078 3078 3079 3078 3077 3078 3077 3078 3074 3075 3074 3073 3071 3070 3068 3065 3062 3060 3060 3058 3057 3059 3059 3060 3062 3063 3066 3068 3069 3071 3068 3071 3074 3076 3079 3080 3082 3084 3085 3088 3091 3094 3098 3094
3068 3067 3068 3069 3069 3069 3071 3071 3070 3068 3070 3069 3068 3066 3065 3064 3061 3057 3057 3055 3055 3055 3055 3057 3058 3058 3060 3061 3063 3064 3063 3063 3070 3071 3073 3074 3075 3077 3079 3080 3082 3084 3086 3090 3085
3058 3058 3058 3058 3060 3061 3063 3064 3064 3064 3064 3065 3064 3061 3061 3059 3058 3053 3052 3053 3052 3052 3052 3054 3055 3055 3056 3056 3057 3058 3055 3061 3065 3067 3066 3066 3066 3070 3072 3073 3077 3081 3082 3085 3086
3049 3047 3048 3049 3050 3052 3054 3056 3056 3058 3058 3059 3058 3058 3056 3055 3057 3050 3050 3051 3050 3050 3050 3050 3052 3052 3052 3053 3053 3052 3053 3055 3058 3060 3061 3061 3064 3062 3065 3068 3073 3075 3074 3075 3080
3041 3040 3038 3039 3040 3042 3045 3049 3049 3051 3052 3053 3053 3053 3052 3051 3049 3048 3047 3046 3046 3047 3047 3048 3049 3049 3049 3050 3050 3047 3047 3049 3052 3052 3052 3055 3055 3056 3055 3060 3064 3067 3067 3071 3074
3033 3032 3030 3031 3031 3033 3036 3040 3043 3045 3046 3048 3049 3049 3049 3047 3045 3044 3044 3044 3043 3044 3044 3044 3045 3045 3044 3045 3045 3045 3043 3043 3044 3044 3046 3047 3046 3049 3047 3055 3057 3059 3061 3064 3067
3023 3024 3023 3023 3023 3025 3028 3032 3035 3039 3040 3042 3044 3044 3045 3042 3041 3040 3040 3041 3041 3041 3040 3040 3041 3041 3041 3041 3040 3038 3036 3036 3036 3037 3037 3041 3037 3035 3043 3048 3050 3054 3057 3060 3060
3015 3015 3016 3017 3018 3019 3021 3027 3029 3033 3034 3036 3040 3040 3038 3037 3036 3036 3038 3038 3038 3038 3038 3037 3037 3037 3036 3036 3035 3035 3035 3032 3031 3032 3032 3035 3027 3034 3038 3041 3042 3047 3051 3054 3054
3009 3009 3009 3010 3012 3013 3014 3018 3024 3028 3030 3032 3034 3036 3033 3031 3033 3034 3035 3035 3035 3036 3035 3035 3034 3033 3033 3033 3032 3032 3028 3028 3026 3028 3029 3028 3026 3027 3032 3035 3036 3040 3046 3049 3049
3005 3004 3004 3005 3007 3009 3011 3014 3019 3022 3025 3027 3029 3033 3029 3030 3030 3031 3032 3032 3033 3033 3034 3034 3032 3031 3030 3030 3027 3027 3025 3023 3022 3025 3024 3022 3022 3021 3026 3028 3032 3036 3041 3044 3045
3001 2999 2999 3001 3000 3004 3008 3011 3016 3019 3021 3024 3026 3025 3025 3027 3027 3029 3029 3030 3030 3032 3032 3031 3030 3025 3026 3026 3025 3024 3023 3019 3019 3020 3018 3016 3015 3018 3022 3023 3027 3032 3037 3039 3041
2995 2995 2995 2996 2998 2998 3003 3007 3011 3017 3017 3019 3020 3022 3023 3024 3025 3026 3029 3029 3028 3030 3030 3030 3024 3023 3024 3023 3022 3019 3016 3011 3011 3013 3014 3011 3010 3014 3018 3020 3022 3025 3029 3032 3035
2989 2990 2991 2992 2993 2994 2998 3001 3007 3012 3014 3015 3016 3018 3022 3023 3023 3026 3027 3026 3026 3027 3027 3024 3023 3021 3019 3019 3016 3011 3008 3005 3007 3009 3005 3007 3008 3011 3014 3016 3019 3022 3024 3028 3030
2984 2984 2986 2988 2992 2993 2994 3000 3003 3008 3012 3014 3014 3017 3019 3020 3024 3024 3024 3026 3026 3026 3025 3021 3018 3018 3016 3013 3009 3004 3000 2999 3002 3006 3002 3002 3002 3007 3010 3013 3016 3020 3021 3025 3026
2980 2980 2982 2985 2987 2990 2993 2999 3002 3006 3009 3013 3012 3014 3016 3021 3024 3024 3024 3024 3025 3025 3025 3022 3018 3016 3011 3009 3005 3001 2997 2996 2999 3001 2998 2999 3000 3002 3009 3012 3015 3016 3018 3020 3021
2977 2977 2979 2982 2987 2991 2993 2998 3003 3008 3004 3009 3010 3012 3016 3019 3022 3023 3024 3024 3024 3022 3019 3016 3016 3014 3010 3008 3003 2998 2997 2998 3000 2999 2999 2995 2998 3003 3007 3009 3010 3012 3013 3016 3019
2974 2974 2976 2981 2986 2989 2994 2999 3004 3001 3006 3008 3009 3012 3018 3020 3022 3023 3024 3024 3024 3022 3019 3017 3015 3014 3012 3008 3004 3002 2998 2999 2998 2990 2993 2996 2993 3003 3004 3005 3007 3009 3010 3012 3018
2971 2972 2975 2979 2983 2989 2994 3001 3001 3002 3004 3006 3009 3015 3020 3021 3024 3024 3025 3024 3023 3023 3021 3018 3017 3016 3013 3012 3007 3003 3001 2998 2993 2991 2997 2996 2996 3001 3004 3004 3007 3008 3010 3012 3019
2963 2972 2976 2982 2986 2992 2999 3002 3001 3003 3006 3008 3014 3018 3020 3023 3025 3025 3025 3024 3024 3023 3023 3020 3018 3016 3013 3011 3010 3004 3002 3001 3000 2998 2996 2998 3001 3003 3001 3005 3007 3009 3012 3016 3019
2963 2972 2982 2986 2990 2997 3002 3001 3003 3005 3008 3014 3017 3020 3023 3025 3026 3025 3024 3023 3024 3023 3022 3022 3021 3017 3015 3014 3012 3009 3007 3006 3002 2997 2997 2999 3003 3009 3006 3007 3009 3009 3013 3018 3023
2975 2981 2988 2992 2997 3002 3004 3005 3008 3010 3014 3017 3018 3021 3025 3026 3026 3027 3027 3026 3024 3023 3023 3022 3022 3020 3019 3017 3015 3014 3011 3008 3006 3004 3001 2998 3014 3015 3013 3011 3011 3013 3016 3020 3023
2989 2988 2996 2999 3004 3006 3006 3009 3010 3013 3016 3018 3020 3023 3026 3027 3028 3028 3028 3027 3025 3025 3025 3024 3022 3020 3021 3019 3017 3016 3016 3013 3009 3009 3006 3006 3023 3020 3017 3016 3018 3020 3020 3022 3023
2994 2993 3000 3004 3009 3010 3012 3013 3015 3018 3020 3022 3023 3024 3025 3027 3031 3030 3028 3028 3027 3026 3026 3025 3025 3022 3021 3022 3020 3020 3018 3017 3015 3014 3011 3009 3024 3024 3022 3022 3023 3024 3025 3026 3028
2998 3001 3006 3010 3013 3015 3016 3018 3019 3021 3023 3024 3025 3027 3028 3029 3029 3030 3029 3029 3028 3027 3026 3027 3026 3027 3027 3027 3025 3025 3023 3020 3018 3017 3019 3019 3022 3026 3026 3027 3028 3029 3031 3032 3034
3005 3007 3008 3012 3017 3019 3020 3022 3025 3026 3026 3027 3029 3030 3031 3032 3032 3032 3031 3030 3031 3029 3028 3028 3029 3028 3027 3026 3025 3024 3024 3023 3022 3022 3021 3024 3025 3025 3027 3029 3029 3030 3032 3034 3034
3012 3011 3013 3015 3019 3023 3025 3027 3028 3029 3029 3031 3032 3032 3033 3033 3033 3033 3033 3033 3032 3031 3030 3030 3030 3029 3027 3027 3027 3026 3025 3024 3024 3024 3024 3025 3026 3028 3028 3028 3030 3031 3033 3034 3033
3015 3015 3017 3019 3022 3026 3027 3029 3030 3031 3032 3033 3033 3035 3035 3035 3034 3035 3034 3035 3034 3033 3032 3031 3031 3031 3030 3029 3028 3029 3026 3025 3025 3026 3026 3028 3028 3028 3029 3029 3030 3031 3031 3031 3032